When you browse on this site, cookies collect data to enhance your experience and personalize the content and advertising you see.
Visit our Privacy Policy to learn more. By continuing to use the site, you agree to this use of cookies and data.
  • In Romania
  • List of Countries
  • For 7 days
  • Water Temperature
  • Weather Map
  • Weather Widgets
  • user-avatar
    Login

    Hourly Weather Gurgaon

    Today, 6 June, Saturday

    Time Temperature Precipitation Wind Pressure Humidity
    00:00 +32°C° 0.2 mm 4 mps 732 mmHg 50%
    01:00 +32°C° 0.2 mm 4 mps 732 mmHg 54%
    02:00 +30°C° 0.2 mm 4 mps 731 mmHg 58%
    03:00 +29°C° 0.1 mm 4 mps 731 mmHg 61%
    04:00 +29°C° 0.1 mm 4 mps 731 mmHg 64%
    05:00 +28°C° 0 mm 3 mps 731 mmHg 68%
    06:00 +29°C° 0 mm 3 mps 732 mmHg 64%
    07:00 +30°C° 0 mm 3 mps 732 mmHg 60%
    08:00 +31°C° 0 mm 3 mps 733 mmHg 56%
    09:00 +32°C° 0 mm 2 mps 733 mmHg 50%
    10:00 +35°C° 0 mm 2 mps 732 mmHg 45%
    11:00 +36°C° 0 mm 2 mps 732 mmHg 40%
    12:00 +38°C° 0 mm 2 mps 732 mmHg 35%
    13:00 +39°C° 0 mm 1 mps 731 mmHg 30%
    14:00 +40°C° 0 mm 1 mps 730 mmHg 25%
    15:00 +37°C° 0 mm 0 mps 730 mmHg 25%
    16:00 +37°C° 0 mm 0 mps 729 mmHg 24%
    17:00 +37°C° 0 mm 0 mps 729 mmHg 23%
    18:00 +40°C° 0 mm 1 mps 729 mmHg 24%
    19:00 +40°C° 0 mm 1 mps 729 mmHg 25%
    20:00 +39°C° 0 mm 2 mps 730 mmHg 26%
    21:00 +39°C° 0 mm 2 mps 730 mmHg 27%
    22:00 +38°C° 0 mm 2 mps 730 mmHg 29%
    23:00 +37°C° 0 mm 2 mps 730 mmHg 30%

    Tomorrow, 7 June, Sunday

    Time Temperature Precipitation Wind Pressure Humidity
    00:00 +37°C° 0 mm 2 mps 730 mmHg 31%
    01:00 +37°C° 0 mm 2 mps 730 mmHg 32%
    02:00 +36°C° 0 mm 2 mps 730 mmHg 33%
    03:00 +36°C° 0 mm 2 mps 730 mmHg 34%
    04:00 +36°C° 0 mm 2 mps 730 mmHg 35%
    05:00 +35°C° 0 mm 2 mps 730 mmHg 35%
    06:00 +36°C° 0 mm 2 mps 731 mmHg 34%
    07:00 +37°C° 0 mm 2 mps 731 mmHg 33%
    08:00 +38°C° 0 mm 3 mps 732 mmHg 32%
    09:00 +39°C° 0 mm 3 mps 732 mmHg 29%
    10:00 +40°C° 0 mm 3 mps 732 mmHg 26%
    11:00 +43°C° 0 mm 3 mps 732 mmHg 23%
    12:00 +43°C° 0 mm 3 mps 731 mmHg 22%
    13:00 +43°C° 0 mm 3 mps 731 mmHg 21%
    14:00 +44°C° 0 mm 3 mps 730 mmHg 20%
    15:00 +44°C° 0 mm 3 mps 730 mmHg 20%
    16:00 +43°C° 0 mm 3 mps 729 mmHg 20%
    17:00 +43°C° 0 mm 3 mps 729 mmHg 20%
    18:00 +43°C° 0 mm 3 mps 729 mmHg 21%
    19:00 +41°C° 0 mm 2 mps 729 mmHg 22%
    20:00 +40°C° 0 mm 2 mps 729 mmHg 24%
    21:00 +39°C° 0 mm 3 mps 729 mmHg 26%
    22:00 +38°C° 0 mm 4 mps 729 mmHg 28%
    23:00 +37°C° 0 mm 4 mps 729 mmHg 30%

    Day after tomorrow, 8 June, Monday

    Time Temperature Precipitation Wind Pressure Humidity
    00:00 +37°C° 0 mm 4 mps 729 mmHg 31%
    01:00 +36°C° 0 mm 4 mps 729 mmHg 31%
    02:00 +36°C° 0 mm 3 mps 730 mmHg 32%
    03:00 +36°C° 0 mm 3 mps 730 mmHg 33%
    04:00 +35°C° 0 mm 3 mps 730 mmHg 35%
    05:00 +35°C° 0 mm 3 mps 730 mmHg 37%
    06:00 +36°C° 0 mm 4 mps 730 mmHg 35%
    07:00 +37°C° 0 mm 4 mps 731 mmHg 33%
    08:00 +39°C° 0 mm 5 mps 731 mmHg 32%
    09:00 +41°C° 0 mm 4 mps 731 mmHg 29%
    10:00 +42°C° 0 mm 4 mps 731 mmHg 25%
    11:00 +44°C° 0 mm 4 mps 730 mmHg 22%
    12:00 +44°C° 0 mm 4 mps 730 mmHg 21%
    13:00 +45°C° 0 mm 4 mps 729 mmHg 19%
    14:00 +47°C° 0 mm 4 mps 729 mmHg 18%
    15:00 +47°C° 0 mm 4 mps 728 mmHg 18%
    16:00 +45°C° 0 mm 4 mps 728 mmHg 18%
    17:00 +45°C° 0 mm 4 mps 727 mmHg 18%
    18:00 +45°C° 0 mm 3 mps 728 mmHg 19%
    19:00 +44°C° 0 mm 3 mps 728 mmHg 20%
    20:00 +42°C° 0 mm 2 mps 728 mmHg 21%
    21:00 +41°C° 0 mm 2 mps 728 mmHg 22%
    22:00 +41°C° 0 mm 2 mps 729 mmHg 23%
    23:00 +40°C° 0 mm 2 mps 729 mmHg 23%

    9 June, Tuesday

    Time Temperature Precipitation Wind Pressure Humidity
    00:00 +40°C° 0 mm 2 mps 729 mmHg 25%
    01:00 +39°C° 0 mm 3 mps 729 mmHg 27%
    02:00 +40°C° 0 mm 4 mps 728 mmHg 28%
    03:00 +38°C° 0 mm 4 mps 729 mmHg 31%
    04:00 +39°C° 0 mm 5 mps 729 mmHg 34%
    05:00 +37°C° 0 mm 5 mps 729 mmHg 37%
    06:00 +39°C° 0 mm 6 mps 729 mmHg 35%
    07:00 +40°C° 0 mm 6 mps 730 mmHg 33%
    08:00 +41°C° 0 mm 7 mps 731 mmHg 32%
    09:00 +44°C° 0 mm 6 mps 730 mmHg 28%
    10:00 +45°C° 0 mm 6 mps 730 mmHg 24%
    11:00 +47°C° 0 mm 5 mps 730 mmHg 21%
    12:00 +47°C° 0 mm 5 mps 730 mmHg 19%
    13:00 +48°C° 0 mm 5 mps 729 mmHg 17%
    14:00 +48°C° 0 mm 4 mps 728 mmHg 16%
    15:00 +48°C° 0 mm 4 mps 728 mmHg 16%
    16:00 +48°C° 0 mm 4 mps 727 mmHg 16%
    17:00 +48°C° 0 mm 4 mps 727 mmHg 17%
    18:00 +47°C° 0 mm 4 mps 727 mmHg 18%
    19:00 +45°C° 0 mm 3 mps 727 mmHg 19%
    20:00 +44°C° 0 mm 3 mps 727 mmHg 20%
    21:00 +43°C° 0 mm 3 mps 728 mmHg 22%
    22:00 +43°C° 0 mm 3 mps 728 mmHg 23%
    23:00 +42°C° 0 mm 3 mps 728 mmHg 24%

    10 June, Wednesday

    Time Temperature Precipitation Wind Pressure Humidity
    00:00 +42°C° 0 mm 3 mps 728 mmHg 25%
    01:00 +40°C° 0 mm 3 mps 728 mmHg 27%
    02:00 +40°C° 0 mm 3 mps 728 mmHg 28%
    03:00 +39°C° 0 mm 3 mps 728 mmHg 30%
    04:00 +39°C° 0 mm 3 mps 728 mmHg 32%
    05:00 +38°C° 0 mm 3 mps 728 mmHg 34%
    06:00 +40°C° 0 mm 4 mps 729 mmHg 32%
    07:00 +41°C° 0 mm 5 mps 730 mmHg 31%
    08:00 +42°C° 0 mm 5 mps 730 mmHg 29%
    09:00 +43°C° 0 mm 5 mps 730 mmHg 27%
    10:00 +46°C° 0 mm 5 mps 730 mmHg 24%
    11:00 +47°C° 0 mm 5 mps 730 mmHg 21%
    12:00 +48°C° 0 mm 4 mps 730 mmHg 20%
    13:00 +48°C° 0 mm 4 mps 729 mmHg 18%
    14:00 +49°C° 0 mm 4 mps 728 mmHg 17%
    15:00 +49°C° 0 mm 4 mps 728 mmHg 17%
    16:00 +48°C° 0 mm 4 mps 728 mmHg 17%
    17:00 +48°C° 0 mm 4 mps 727 mmHg 17%
    18:00 +47°C° 0 mm 4 mps 727 mmHg 19%
    19:00 +45°C° 0 mm 4 mps 728 mmHg 21%
    20:00 +44°C° 0 mm 3 mps 728 mmHg 22%
    21:00 +44°C° 0 mm 3 mps 728 mmHg 23%
    22:00 +42°C° 0 mm 2 mps 728 mmHg 24%
    23:00 +42°C° 0 mm 2 mps 728 mmHg 24%

    11 June, Thursday

    Time Temperature Precipitation Wind Pressure Humidity
    00:00 +41°C° 0 mm 2 mps 728 mmHg 25%
    01:00 +42°C° 0 mm 3 mps 728 mmHg 26%
    02:00 +41°C° 0 mm 4 mps 728 mmHg 27%
    03:00 +41°C° 0 mm 4 mps 728 mmHg 29%
    04:00 +39°C° 0 mm 3 mps 728 mmHg 30%
    05:00 +39°C° 0 mm 3 mps 728 mmHg 31%
    06:00 +41°C° 0 mm 4 mps 728 mmHg 30%
    07:00 +42°C° 0 mm 5 mps 729 mmHg 28%
    08:00 +43°C° 0 mm 5 mps 729 mmHg 27%
    09:00 +45°C° 0 mm 5 mps 729 mmHg 24%
    10:00 +46°C° 0 mm 5 mps 729 mmHg 22%
    11:00 +48°C° 0 mm 5 mps 729 mmHg 20%
    12:00 +48°C° 0 mm 5 mps 728 mmHg 18%
    13:00 +49°C° 0 mm 5 mps 728 mmHg 17%
    14:00 +49°C° 0 mm 4 mps 727 mmHg 15%
    15:00 +49°C° 0 mm 4 mps 727 mmHg 16%
    16:00 +49°C° 0 mm 5 mps 726 mmHg 16%
    17:00 +48°C° 0 mm 5 mps 726 mmHg 16%
    18:00 +47°C° 0 mm 5 mps 726 mmHg 17%
    19:00 +47°C° 0 mm 4 mps 726 mmHg 18%
    20:00 +45°C° 0 mm 4 mps 726 mmHg 19%
    21:00 +44°C° 0 mm 4 mps 726 mmHg 21%
    22:00 +43°C° 0 mm 3 mps 727 mmHg 23%
    23:00 +42°C° 0 mm 3 mps 727 mmHg 25%
    Show more